Terminal Aerodrome Forecast
Issued by NWS Memphis, TN

Home | Current Version | Previous Version | Text Only | Print | Product List | Glossary On
Versions: 1 2 3 4 5 6 7 8 9 10 11 12 13 14 15 16 17 18 19 20 21 22 23 24 25 26 27 28
000
FTUS44 KMEG 252100 AAA
TAFMEM
TAF AMD
KMEM 252102Z 2521/2618 32003KT P6SM SCT250
     FM260100 19004KT P6SM SKC
     FM261300 22007KT P6SM FEW250=

USA.gov is the U.S. government's official web portal to all federal, state and local government web resources and services.